Miscellaneous Local Product
Issued by NWS Hastings, NE

Home | Current Version | Previous Version | Text Only | Print | Product List | Glossary On
Versions: 1 2 3 4 5 6 7 8 9 10 11 12 13 14 15 16 17 18 19 20 21 22 23 24 25 26 27 28 29 30 31 32 33 34 35 36 37 38 39 40 41 42 43 44 45 46 47 48 49 50
000
AXUS43 KGID 280202
MISGRI

GID CWA HOURLY WEATHER ROUNDUP
NATIONAL WEATHER SERVICE HASTINGS NE
900 PM CDT MON JUL 27 2015

NOTE: "FAIR" INDICATES FEW OR NO CLOUDS BELOW 12,000 FEET WITH NO
SIGNIFICANT WEATHER AND/OR OBSTRUCTIONS TO VISIBILITY.

...SOUTH CENTRAL NEBRASKA...

CITY           SKY/WX    TMP DP  RH WIND       PRES   REMARKS
GRAND ISLAND   PTCLDY    82  74  76 SE10      29.78F
HASTINGS       CLEAR     83  76  79 SE10      29.78F HX  91
KEARNEY        PTCLDY    82  72  69 SE10      29.77S
ORD            CLEAR     84  72  67 SE10G24   29.74F
YORK           CLEAR     82  77  83 SE10      29.80S HX  91
AURORA         CLEAR     82  76  84 SE9       29.79S
LEXINGTON      PTCLDY    86  72  62 S15       29.74F HX  93
HOLDREGE       CLEAR     84  69  59 SE12      29.76F
HEBRON         CLEAR     86  70  58 SE12      29.79F HX  90

...NEBRASKA PANHANDLE...

CITY           SKY/WX    TMP DP  RH WIND       PRES   REMARKS
CHADRON        CLOUDY    73  58  59 SW7       29.71R
ALLIANCE       HVY RAIN  79  56  45 NW13G40   29.74R
SCOTTSBLUFF    MOCLDY    73  62  68 SE6       29.74F
SIDNEY         CLEAR     83  58  42 S9        29.76R

...WESTERN AND NORTH CENTRAL NEBRASKA...

CITY           SKY/WX    TMP DP  RH WIND       PRES   REMARKS
VALENTINE      PTCLDY    87  70  56 S17       29.70R HX  92
AINSWORTH      PTCLDY    84  72  65 S15       29.73R
ONEILL         PTCLDY    84  72  67 SE13G21   29.74F
BROKEN BOW     MOCLDY    85  73  67 SE15G28   29.75S HX  91
IMPERIAL       CLEAR     87  67  51 S14       29.72S HX  90
NORTH PLATTE   CLEAR     83  71  67 SE9       29.71S
MCCOOK         CLEAR     89  68  49 S18       29.72S HX  93

...EASTERN NEBRASKA...

CITY           SKY/WX    TMP DP  RH WIND       PRES   REMARKS
NORFOLK        CLEAR     82  74  76 SE13      29.77F
SO SIOUX CITY  CLEAR     79  71  76 SE18      29.81S
TEKAMAH        CLEAR     78  70  76 SE12      29.83S
COLUMBUS       CLEAR     84  72  65 SE8       29.79S
ALBION         CLEAR     82  70  66 S10       29.77F
OMAHA EPPLEY   PTCLDY    78  70  76 SE16      29.84S
OFFUTT AFB     CLEAR     77  71  82 E10       29.84S
MILLARD        MOCLDY    79  72  78 E12G18    29.83S
LINCOLN        CLEAR     86  77  74 SE13      29.81S HX  97
NEBRASKA CITY  CLEAR     78  71  78 SE10G18   29.85S
BEATRICE       CLEAR     85  79  82 SE8       29.81S HX  97
FALLS CITY     CLEAR     81  77  88 E10       29.84R

...NORTHERN KANSAS...

CITY           SKY/WX    TMP DP  RH WIND       PRES   REMARKS
GOODLAND       PTCLDY    83  69  62 SE13      29.76F
HILL CITY      CLEAR     87  68  52 SE14      29.75F HX  90
NORTON         CLEAR     88  63  42 SE15G22   29.75S
PHILLIPSBURG   CLEAR     88  70  55 CALM      29.76S HX  92
SMITH CENTER   CLEAR     82  66  57 SE12      29.77F
HAYS           CLEAR     88  66  48 SE17      29.78S HX  90
RUSSELL        CLEAR     85  68  56 SE13      29.78S
CONCORDIA      CLEAR     82  68  62 SE10      29.81S
SALINA         CLEAR     88  63  43 SE12      29.80S
TOPEKA         CLEAR     85  73  67 SE7       29.85R HX  91



USA.gov is the U.S. government's official web portal to all federal, state and local government web resources and services.